DELTA 1 DEB, 29010

Orbit data source: Space-Track

DELTA 1 DEB, 29010 is space debris in LEO originally from a launch on Sat, 06 Nov 1965 UTC launched from the Air Force Eastern Test Range (AFETR). Debris objects in space refer to the collection of defunct objects orbiting the Earth. Examples of debris include non-operational satellites, rocket bodies, and fragments generated from explosions, collisions, or faulty payload assembly.

Loading next visibility...
Identifier
29010, 1965-089H
Orbit
LEO
Country
Flag of USUS
Related business
Manufacturer
Unknown
Mission
Spacecraft
Bus & Motor
Unknown
Mass
Unknown
Launch date (UTC)
1965-11-06 (61 years ago)
Launch vehicle
Unknown
Launch site
Air Force Eastern Test Range (AFETR)
Object type
Payload
Rocket body
Debris
Shape & HBR
Unknown shape, 0.1 m
Radar Cross Section
Medium (>0.1 m² and <1 m²)

Expand to show TLE details & history
Last TLE update: 2 months ago

TLE from 2 months ago
0 DELTA 1 DEB
1 29010U 65089H   26161.38517686  .00000458  00000-0  30818-2 0  9999
2 29010  59.2645 104.9923 0654306 177.5960 284.7816 12.09421235524165
Epoch: 2026-06-10T09:14Z
TLE epoch observation values (Epoch: 2026-06-10T09:14:39.280Z)
Latitude
59.02367°
Longitude
167.2958°
Altitude
1,546.527 km
Speed
7.144 km/s
True Right ascension
13h 38m 48s
True Declination
58° 53' 13"
Sunlit
Object was in daylight at epoch
Visualization orbit readout
Latitude
Unknown
Longitude
Unknown
Altitude
Unknown
Speed
Unknown
Apparent Right ascension
Unknown
Apparent Declination
Unknown
Sunlit
N/A
Visualization observer readout
Local Sidereal Time
15:13:16
Azimuth
Unknown
Elevation
Unknown
Doppler factor
Unknown
Orbital elements
Apogee altitude
2,162.884 km
Perigee altitude
1,113.836 km
Semi-major axis
8,016.497 km
Eccentricity
0.06543
Inclination
59.2645°
RAAN
104.9923°
Arg. of periapsis
177.596°
True anomaly
277.39811°
Mean anomaly
284.7816°
Eccentric anomaly
281.10287°
Mean motion
3.02389 °/min
Orbital period
119.05 mins
BSTAR
0.0030818
Loading maneuver chart data...
Computing Atmospheric mass density...
Loading historical data...
Loading historical data...
Loading historical data...
Loading historical data...
Loading historical data...
Loading historical data...
Loading historical data...

Documentation

Showing up to 5 results
|